Location: Essen
(51.4609°N, 7.0127°E)
Time: 09:55:40
(UTC+01:00)

OTV 5 (USA 277) - Visible Passes

Search period start: 18 February 2018 00:00
Search period end: 28 February 2018 00:00
Orbit: 404 x 417 km, 43.0° (Epoch: 07 September)

Date Brightness Start Highest point End Pass type
(mag) Time Alt. Az. Time Alt. Az. Time Alt. Az.
22 Feb ? 06:43:34 10° SSW 06:45:17 14° SSE 06:47:02 10° SE visible
23 Feb ? 05:53:24 10° S 05:54:27 11° SSE 05:55:29 10° SE visible
24 Feb ? 06:37:48 10° SW 06:40:05 18° S 06:42:22 10° SE visible
25 Feb ? 05:47:48 13° SSW 05:49:12 16° SSE 05:51:17 10° SE visible
26 Feb ? 04:59:06 13° SSE 04:59:06 13° SSE 05:00:04 10° SE visible
26 Feb ? 06:32:30 10° SW 06:34:55 19° S 06:37:20 10° SE visible
27 Feb ? 05:43:07 17° SSW 05:44:01 19° S 05:46:25 10° SE visible
